sat.trackr.live / text

‹ back to catalog

STARLINK-11423 [DTC]

NORAD 61950 · 2024-209M

PAYLOAD ACTIVE UNKNOWN

§ Identity

Operator
Country
US
Launch date
2024-11-14
Launch site
AFWTR
Launch vehicle
Mass (kg)
RCS (m²)

Purposes: comms

External: N2YO · Heavens-Above · Gunter

§ Orbital elements

Epoch: 2026-05-25T00:03:12.352320Z

Period
91.73 min
Inclination
53.1575°
Eccentricity
0.0000906
Mean motion
15.69775733 rev/d
Perigee alt
358.9 km
Apogee alt
360.1 km
Semi-major
6,737.7 km
B*
1.8197e-3
RAAN
355.0706°
Arg perigee
55.5041°
Mean anomaly
304.6062°
Rev number
8,870

§ Raw data

STARLINK-11423 [DTC]1 61950U 24209M   26145.00222630  .00226611  00000+0  18197-2 0  99962 61950  53.1575 355.0706 0000906  55.5041 304.6062 15.69775733 88707

JSON: /api/v1/satellites/61950 · /tle

For live sub-satellite position, see the globe view (requires WebGL).

§ Visibility from observer

Set your observer location to see the next 7 days of passes ≥ 10°. The values pass through the URL so the page stays shareable.

No JS? Fill the form by hand. The geolocation button needs JavaScript.